RH
35 38 38 34 33 60 93 101 102 102 100 98 96 98 101 101 100 100 102 100 94 92 93 93 90 94 99 93 87 80 80 87 82 82 86 83 88 93 102 109 104 104 105 97 79 60 53 57 62 69 79 80 74 86 102 101 101 102 94 83 74 66 57 54 58 58 56 55 55 57 57 58 61 59 57 44 28 41 67 75 76 80 84 85 82
36 35 39 37 30 56 88 96 100 101 99 97 95 101 101 98 101 101 103 103 95 87 84 83 78 86 98 90 83 84 90 97 97 98 99 98 102 104 106 105 102 102 97 83 63 50 60 71 72 76 85 87 83 90 101 102 101 101 95 85 75 64 54 52 57 62 60 57 57 57 57 57 57 58 55 44 42 63 86 92 90 95 98 97 94
31 36 40 36 32 56 82 90 100 102 99 98 98 101 97 96 101 100 101 102 100 96 94 98 96 94 99 97 97 100 99 100 100 101 101 101 103 104 101 93 90 90 81 68 51 50 72 83 80 82 89 94 93 92 98 103 101 100 99 90 75 62 53 50 55 64 64 61 59 56 57 57 53 56 51 52 77 94 97 100 99 100 101 100 100
29 35 39 38 33 52 77 84 96 103 99 99 100 98 94 97 101 100 100 100 102 103 104 107 103 101 105 101 100 102 101 102 101 102 103 102 104 101 93 83 78 75 67 56 46 55 83 93 85 82 90 99 99 96 99 102 101 100 100 91 76 63 53 49 54 66 68 64 60 55 56 57 52 54 50 60 94 104 99 102 100 100 100 99 100
34 35 37 39 33 51 84 92 98 103 99 99 100 98 94 93 95 99 103 103 101 98 103 104 94 98 106 102 101 100 99 102 98 98 98 94 93 89 83 77 72 68 59 48 45 59 85 99 91 80 85 95 100 102 101 101 100 99 100 95 83 65 52 51 56 68 72 64 61 56 55 58 54 52 49 61 90 101 103 104 100 100 99 99 102
39 38 34 37 33 54 91 102 102 103 99 100 100 98 96 87 89 102 102 99 98 88 86 90 86 92 97 94 94 90 94 99 85 79 81 77 77 75 72 69 65 62 53 44 47 56 73 94 95 82 78 84 95 103 101 101 100 98 102 101 88 64 50 53 59 69 75 65 62 59 55 60 58 51 47 59 86 102 103 103 102 99 92 93 100
29 33 34 37 33 51 90 104 101 101 100 100 99 99 101 94 92 102 97 94 101 86 73 85 90 85 82 83 86 85 96 100 78 66 66 65 71 70 65 62 57 53 47 43 48 53 62 81 89 82 76 74 85 98 99 101 101 99 102 93 78 62 52 55 58 66 75 67 64 63 56 60 63 56 48 57 86 103 99 98 98 92 89 95 101
27 30 32 35 31 45 86 105 100 102 104 100 98 99 102 104 101 101 96 97 105 90 77 93 100 89 81 83 92 95 101 102 88 78 69 60 65 66 62 60 54 48 44 42 48 55 58 65 69 70 71 70 76 86 91 98 102 101 100 87 75 67 55 52 54 62 76 70 63 64 57 58 67 65 54 57 82 97 90 83 81 83 91 92 85
34 33 29 34 33 38 74 103 102 105 105 96 97 102 100 103 103 100 99 101 102 90 84 95 101 101 95 89 94 98 101 103 96 89 80 66 58 55 54 57 56 50 44 45 52 57 56 53 53 53 57 62 67 72 77 89 100 100 100 95 86 74 56 50 54 63 76 72 62 64 58 55 68 73 63 62 76 86 88 87 85 91 92 73 52
29 29 27 32 34 34 61 97 105 100 94 85 90 100 100 99 99 97 98 99 100 95 91 97 101 103 102 100 99 94 95 98 92 91 94 83 66 54 51 59 69 63 51 49 53 56 55 50 50 50 50 53 57 61 64 74 90 97 99 100 91 79 62 53 57 66 74 70 60 63 61 53 65 78 70 65 71 76 87 98 100 101 92 64 46
23 25 29 32 33 34 50 78 94 93 84 78 85 96 100 100 94 96 101 97 99 102 100 102 102 100 102 104 98 93 96 94 88 94 98 91 80 65 54 59 73 77 73 69 59 54 56 52 51 52 50 50 50 54 57 62 80 95 99 101 96 87 70 56 59 67 69 66 59 62 65 54 58 77 78 70 67 69 82 99 101 96 82 61 56
22 23 29 36 37 34 38 53 72 84 78 69 76 87 93 97 92 95 102 97 96 100 99 99 101 100 100 98 93 92 100 98 95 102 99 91 87 76 63 58 66 84 97 90 70 60 62 59 56 54 51 52 53 55 56 58 79 100 101 101 99 88 69 56 63 69 64 61 58 61 68 57 52 71 83 76 68 66 78 91 90 81 71 63 65
22 20 24 36 39 34 35 44 58 77 82 71 67 76 83 88 91 94 95 91 94 100 101 100 101 101 99 97 98 96 99 101 99 104 101 94 93 87 76 67 66 86 103 99 86 83 85 73 60 55 53 55 59 61 60 59 77 101 103 101 97 79 60 56 66 69 61 58 56 62 72 65 52 63 80 83 77 71 74 76 72 69 71 74 73
22 21 21 28 35 33 34 45 53 68 90 88 70 71 80 80 82 94 95 90 97 104 104 103 100 101 101 100 103 102 100 102 101 103 102 98 99 92 83 77 74 85 99 102 100 101 97 79 60 56 57 58 60 63 66 64 75 98 104 101 95 73 56 60 69 68 59 55 58 67 78 74 63 65 77 84 82 78 76 71 67 68 73 79 77
21 21 22 23 28 28 29 42 49 54 81 99 84 74 83 84 78 91 99 93 98 105 105 106 101 98 101 100 101 102 100 102 102 102 102 100 100 95 87 81 79 91 103 105 105 102 91 76 66 64 63 60 58 61 68 71 78 97 104 102 95 73 57 64 71 68 57 54 63 73 80 85 82 79 80 80 79 80 79 75 74 76 77 79 79
21 21 22 22 23 24 26 35 43 51 68 81 81 80 92 95 81 87 103 98 97 104 104 106 104 97 100 101 100 101 99 101 102 101 101 101 101 98 89 77 75 91 101 97 101 105 96 83 75 72 68 61 58 61 70 75 81 97 105 103 91 67 58 67 73 67 56 56 70 75 79 94 103 98 91 84 80 81 82 80 79 81 82 83 84
21 21 22 23 21 21 26 30 36 59 81 76 65 71 91 98 84 89 112 108 98 102 102 104 103 96 99 102 100 101 100 99 101 101 101 101 101 96 87 79 80 91 94 90 96 101 96 87 78 74 70 62 55 58 69 76 84 101 107 100 83 65 62 71 73 68 57 58 74 78 79 94 106 107 103 97 89 85 84 84 81 81 86 88 87
21 22 22 22 22 19 24 30 30 50 88 94 72 64 75 86 90 96 106 106 103 102 100 102 101 96 98 101 100 101 101 99 100 102 99 98 100 95 91 93 96 98 98 96 99 98 91 85 80 76 70 62 53 55 67 76 84 99 105 93 78 69 70 71 70 70 60 55 64 71 74 86 96 103 107 106 100 94 88 84 80 80 84 88 88
20 22 22 21 23 20 19 28 29 33 57 75 77 79 74 70 85 100 99 101 107 104 100 100 101 101 100 100 101 100 101 100 98 102 101 98 98 95 95 100 102 104 103 98 99 100 93 88 85 80 72 64 55 51 62 75 81 87 94 95 87 77 74 70 68 69 64 54 53 58 65 77 87 95 102 104 101 97 91 85 82 83 85 86 86
19 20 22 21 21 22 19 21 28 31 34 40 56 83 92 79 85 101 100 99 104 104 104 101 99 102 101 99 102 101 100 101 99 101 102 101 101 98 95 99 103 107 106 101 103 105 99 94 90 83 74 66 56 50 57 74 83 80 84 94 92 81 75 70 67 70 67 56 51 53 60 71 83 89 94 97 95 92 89 85 87 91 90 88 87
20 19 20 22 20 20 20 18 22 28 32 32 38 66 99 98 92 101 100 96 100 103 107 105 100 102 99 97 101 100 100 102 100 100 102 103 102 100 99 100 101 104 106 107 108 106 101 99 94 85 76 66 56 48 50 68 85 86 81 81 81 79 76 70 70 73 65 54 51 53 57 67 80 88 91 94 93 89 87 86 91 97 96 93 90
20 20 19 21 21 19 20 18 19 23 29 33 33 50 86 98 97 106 104 97 98 98 98 103 104 101 98 96 97 96 97 99 95 95 102 106 104 101 102 101 100 103 107 107 106 106 105 103 100 91 79 69 58 47 47 62 82 90 83 73 74 81 78 69 70 70 56 47 47 50 55 63 75 86 92 95 95 92 89 89 93 101 103 100 94
21 21 20 21 21 20 20 18 17 20 24 32 32 37 63 88 100 106 103 98 101 98 96 103 106 104 105 101 95 93 96 97 92 85 86 92 95 96 100 100 98 97 93 94 102 107 106 105 103 97 84 71 59 49 46 53 70 86 88 78 72 75 75 68 66 62 47 39 43 49 57 63 71 83 92 97 100 99 97 95 95 101 106 104 98
25 24 22 22 23 22 22 19 18 18 19 27 32 29 42 72 93 101 102 102 103 101 102 105 105 107 111 105 96 95 98 98 96 92 86 81 82 90 96 93 90 85 80 86 101 107 105 103 102 99 90 76 63 55 50 48 58 73 82 78 70 66 66 63 59 52 41 36 42 52 61 64 69 80 91 98 103 106 105 101 96 98 104 106 102
25 25 24 23 23 24 25 22 20 20 18 21 29 31 32 46 67 87 100 106 104 102 102 102 101 105 112 110 102 99 99 99 98 99 98 92 88 94 98 90 82 79 77 85 99 105 106 104 102 102 96 83 69 61 55 52 54 59 65 67 64 59 56 51 49 44 37 37 44 54 65 69 69 74 87 97 102 105 108 104 95 93 101 105 102
25 25 25 23 23 24 26 26 23 21 20 18 22 29 32 34 42 58 78 95 102 101 101 103 105 108 112 110 102 96 97 101 102 102 106 104 94 90 92 85 78 77 80 89 100 105 105 102 99 103 103 96 87 77 68 63 57 52 53 56 56 55 53 49 44 38 35 40 48 57 69 75 70 68 80 92 97 99 104 106 98 89 94 101 102
25 25 25 24 23 22 23 26 26 24 23 21 19 22 27 32 36 42 54 73 84 87 90 94 96 100 100 95 91 88 86 92 98 101 103 99 87 80 80 79 75 73 79 92 101 102 102 101 94 91 94 97 100 98 91 85 77 61 51 52 54 53 51 47 42 38 38 44 51 61 75 82 73 66 71 81 87 92 99 106 102 84 82 96 104
23 23 23 23 23 22 21 22 24 24 23 23 22 20 21 25 31 37 45 57 64 67 70 72 73 78 80 80 82 82 77 75 77 78 77 76 76 75 70 65 60 56 62 80 92 94 98 103 99 90 81 79 88 98 100 99 96 81 64 57 57 55 52 47 41 38 42 48 55 66 81 88 76 64 67 72 77 88 97 102 100 85 80 94 105
25 23 22 22 21 20 21 20 21 22 22 22 21 21 20 21 23 28 35 43 50 54 56 59 60 61 63 67 71 72 68 62 53 48 49 54 62 63 57 50 44 43 51 63 75 89 95 97 103 103 92 79 76 84 96 101 100 95 84 74 69 63 57 51 47 44 45 50 55 62 80 94 82 64 65 69 71 83 90 91 95 96 95 98 102
27 26 24 23 22 21 21 20 19 20 20 21 21 19 20 19 19 21 24 28 35 40 44 47 48 49 50 52 52 53 53 48 39 35 37 41 46 50 51 50 45 48 56 54 63 91 101 94 98 105 103 98 85 78 90 101 98 94 94 94 88 78 69 63 56 52 50 50 53 57 74 97 94 72 62 64 69 76 77 80 93 104 104 100 100
30 29 26 25 23 22 22 21 21 21 20 19 19 18 19 18 18 18 19 21 24 28 33 36 38 40 41 42 43 43 43 40 36 37 38 38 41 46 51 53 51 56 60 53 64 97 107 97 98 102 101 105 100 88 90 97 96 92 96 103 101 93 92 88 75 63 57 54 58 60 69 93 104 87 67 61 66 71 73 84 99 104 103 101 101
32 31 30 29 27 26 24 23 22 22 22 21 20 19 18 17 18 18 17 18 18 19 23 28 31 34 36 39 41 41 41 41 38 37 36 37 41 47 51 52 52 56 57 58 77 102 107 100 100 101 99 101 104 101 95 95 97 95 94 100 104 101 101 102 93 82 71 68 73 71 72 88 99 91 80 73 73 78 83 95 105 102 101 103 103
33 31 30 29 29 28 28 28 27 25 24 23 22 21 20 18 18 18 17 17 17 16 18 20 24 27 29 33 37 38 38 38 38 36 36 38 41 45 52 56 57 56 56 68 89 100 101 101 100 98 99 101 102 101 97 96 99 99 96 96 100 102 103 104 102 97 91 90 90 81 76 81 87 92 94 90 88 91 94 100 105 102 102 105 104
51 43 37 33 31 29 28 28 28 28 28 27 25 24 24 22 21 19 19 18 17 16 16 17 19 20 22 25 31 35 36 35 36 36 35 37 38 39 47 62 71 65 58 74 96 96 92 100 103 100 102 104 102 97 90 87 89 95 101 99 95 97 101 103 102 101 101 100 94 86 86 91 98 105 103 94 95 101 102 104 104 100 101 104 105
80 66 53 43 37 34 31 29 28 27 27 28 28 27 26 25 25 23 21 20 19 19 17 17 17 18 19 20 22 28 32 31 33 35 34 36 37 35 40 54 68 69 62 75 97 98 90 94 99 101 104 105 105 99 90 82 78 80 90 97 99 98 98 100 101 101 104 102 95 93 98 103 108 110 107 103 102 103 105 106 101 98 100 102 106
85 75 66 59 52 47 42 38 35 31 28 27 27 27 28 27 26 25 23 22 21 21 20 19 18 18 18 19 19 21 24 24 25 28 31 32 33 34 37 41 52 64 67 71 84 92 91 92 94 97 98 99 102 102 97 91 82 73 71 79 90 96 98 102 102 100 102 102 100 100 101 102 102 104 108 110 107 104 104 103 99 100 101 99 105
84 76 72 69 67 67 64 58 52 44 37 31 26 24 25 26 26 26 25 24 22 21 21 20 20 20 19 19 19 19 20 20 21 22 24 27 30 32 36 37 39 54 66 67 70 76 81 87 91 88 86 89 92 95 97 96 91 82 74 71 76 86 97 104 106 104 102 102 102 102 101 100 100 101 105 108 107 105 102 100 101 102 101 101 105
96 92 87 79 72 68 64 60 56 50 42 35 28 23 21 21 24 24 24 25 23 22 22 21 21 22 21 20 20 20 21 21 21 21 20 22 25 27 33 36 34 42 55 60 65 69 69 73 76 72 71 77 82 89 96 98 97 93 86 79 75 77 87 99 106 108 106 105 104 104 103 102 100 101 104 105 104 102 101 105 107 102 101 102 102
91 98 103 100 92 83 74 62 50 40 33 26 21 18 14 14 17 19 20 22 22 22 22 21 21 21 22 22 21 20 21 21 21 22 21 21 22 22 27 31 32 36 42 46 58 68 65 61 61 59 62 67 74 85 92 91 87 81 76 75 75 74 81 91 97 99 102 104 104 105 107 104 100 102 106 103 101 103 106 108 104 102 106 104 101
91 98 105 107 104 98 86 65 42 28 21 16 14 13 12 10 10 11 13 16 18 20 22 21 21 21 21 22 22 21 21 21 21 21 21 21 22 21 23 26 27 33 37 38 49 62 60 53 54 60 67 69 67 72 76 75 73 70 65 64 66 71 79 82 81 83 89 93 95 100 107 108 104 104 104 102 104 106 106 102 101 104 102 90 91
93 98 104 106 101 87 69 50 36 27 20 14 12 12 14 14 11 9 9 11 13 16 18 19 20 20 20 21 22 21 21 21 22 22 21 22 22 21 23 23 23 27 32 34 45 56 53 46 50 61 67 64 58 57 60 61 61 65 66 58 51 58 69 70 69 70 75 85 96 105 111 110 106 102 99 101 105 102 99 101 102 96 80 68 75
93 95 94 89 78 61 45 34 29 24 17 12 9 8 10 14 14 12 10 10 10 11 13 15 17 18 19 20 20 22 22 21 22 22 21 21 22 21 22 21 21 24 28 31 40 50 47 41 46 54 54 50 47 46 47 49 48 53 62 57 46 46 49 53 61 69 80 96 106 109 112 110 102 93 92 98 100 96 102 107 93 75 64 62 62
98 94 87 73 52 36 28 23 18 15 11 9 7 6 6 8 11 13 12 10 9 8 10 12 14 15 17 18 19 22 23 23 23 22 21 21 22 21 21 21 20 21 22 26 34 43 43 38 39 44 43 41 41 39 40 44 44 48 54 50 42 41 44 55 71 82 94 106 106 104 110 109 99 87 86 95 99 97 108 107 76 53 54 55 48
98 89 83 68 43 27 21 16 12 10 9 7 6 6 6 5 7 10 10 9 8 8 9 10 11 13 15 16 19 22 23 24 23 22 22 21 21 21 21 20 20 19 19 23 29 35 39 37 35 40 43 41 38 37 38 41 43 45 47 46 50 61 72 84 95 99 103 105 101 101 103 104 102 94 88 97 100 97 108 106 69 41 45 46 41
91 86 84 66 38 24 19 12 9 9 7 6 6 5 5 6 6 7 8 8 8 9 10 11 10 11 12 15 18 20 23 26 25 24 23 22 20 21 19 18 20 19 19 24 25 27 32 34 34 41 45 42 37 36 37 37 38 43 50 61 77 91 97 100 103 100 97 96 99 103 103 102 100 89 86 99 102 96 108 105 65 36 39 42 39
90 91 91 67 35 21 17 11 9 8 6 6 6 4 5 6 5 6 7 7 8 10 13 15 14 11 10 13 16 20 24 25 25 25 25 23 21 20 18 18 20 18 20 26 25 21 24 28 30 38 46 45 40 37 36 33 34 41 55 76 94 102 103 102 97 90 92 100 106 104 94 85 80 79 90 104 101 98 110 99 57 34 37 35 32
93 94 91 66 35 21 17 12 9 7 6 6 5 4 5 5 5 6 6 5 8 11 14 18 19 15 12 12 14 17 22 23 25 27 26 24 22 20 17 17 18 19 22 25 25 23 25 25 21 24 36 43 40 37 34 31 31 39 55 79 97 98 91 86 86 92 104 105 92 76 66 68 80 93 102 102 98 106 109 80 42 32 35 31 30
93 91 88 67 38 22 17 14 10 7 6 6 5 5 5 5 5 6 6 6 8 11 14 20 23 20 17 16 17 18 18 20 23 25 25 25 23 20 19 18 17 19 21 23 25 28 32 38 37 30 28 32 35 35 34 31 31 36 50 73 89 83 71 74 91 107 105 84 64 60 70 87 101 108 108 105 105 104 83 49 34 39 39 31 30
90 85 88 75 46 25 18 14 11 8 6 6 6 5 5 6 6 6 6 7 8 11 16 23 26 25 25 26 24 20 16 18 21 23 24 26 24 22 22 19 18 21 21 20 24 26 34 60 82 75 55 44 39 35 34 33 32 33 47 70 81 71 63 79 101 101 76 55 57 71 85 100 107 103 98 95 86 69 46 34 37 40 35 34 38
93 83 86 84 62 35 21 16 13 9 6 6 6 6 6 6 7 7 7 7 9 12 18 24 29 32 36 36 32 24 18 17 19 20 22 25 25 24 24 21 21 23 20 19 25 31 46 78 105 107 92 70 47 32 31 32 30 30 44 69 80 70 64 79 94 80 52 46 62 72 76 84 84 74 66 59 49 40 34 35 38 40 48 65 77
106 93 85 89 83 55 29 19 16 10 8 7 6 7 8 6 6 8 8 8 11 14 18 26 32 36 41 40 34 28 22 18 19 20 22 25 26 25 24 23 21 22 21 19 21 32 55 81 97 103 96 68 35 22 24 25 24 29 45 66 77 70 62 71 84 75 53 50 61 63 61 63 56 45 42 40 35 35 35 35 43 59 79 94 99
Wind_Speed
62 60 57 55 57 61 62 64 63 61 59 55 52 52 52 49 49 51 52 55 58 55 53 50 49 49 47 46 46 45 43 39 39 38 36 34 33 33 32 31 30 30 30 30 30 31 30 28 27 28 29 27 25 23 25 27 27 27 28 28 29 28 29 28 25 23 23 21 21 22 23 23 23 24 24 25 25 21 19 20 23 25 25 26 25
63 61 59 56 58 61 63 63 63 62 61 58 55 54 56 52 48 51 53 55 59 59 57 55 54 52 49 48 48 47 45 41 37 35 34 33 32 32 32 32 32 32 31 31 32 30 28 26 27 29 29 27 25 24 26 27 27 28 29 29 30 30 30 29 26 24 24 22 21 21 22 22 22 22 23 24 23 20 19 21 24 25 25 24 25
63 62 61 58 59 62 65 65 65 64 64 63 58 57 59 54 49 50 53 53 55 58 59 59 58 57 55 53 50 47 45 44 41 38 35 35 35 35 35 35 35 34 33 32 31 28 26 26 28 30 29 26 25 25 26 26 27 29 30 30 31 31 30 29 26 25 25 22 20 20 21 22 22 22 22 22 21 20 20 21 22 23 23 23 24
64 64 63 60 60 63 67 69 70 68 66 66 61 58 60 58 51 49 50 51 52 54 56 58 59 57 56 54 51 48 45 43 43 42 41 40 39 38 37 37 36 35 35 33 30 27 25 26 28 30 28 25 25 25 26 26 28 30 31 31 33 32 31 30 26 25 25 23 20 20 20 21 21 21 21 19 18 19 20 20 20 20 22 23 24
65 66 66 62 61 66 71 74 74 71 69 68 65 60 60 61 56 52 50 50 53 55 53 55 58 56 54 52 50 49 46 45 45 45 46 47 46 43 41 39 37 36 35 32 29 26 25 26 28 29 28 26 25 25 27 27 28 30 32 32 34 33 31 29 26 24 26 23 21 20 20 20 21 21 21 18 16 19 21 20 19 20 22 23 24
68 69 69 65 63 68 76 78 78 75 72 71 69 61 58 60 59 56 54 54 57 58 54 53 55 55 54 51 49 48 47 48 51 52 52 52 49 47 44 41 38 36 34 30 28 26 25 25 27 28 28 27 26 27 28 28 28 30 32 33 35 35 32 28 25 25 26 24 21 21 20 20 21 21 20 19 17 21 23 19 18 21 23 24 25
70 70 70 67 65 69 77 81 80 78 76 74 71 64 59 61 61 58 57 57 58 57 55 52 51 52 52 50 48 48 47 48 51 54 54 52 48 46 44 42 39 38 35 31 27 26 24 24 26 27 29 28 27 28 28 29 29 31 33 35 36 35 33 29 26 26 26 24 22 21 20 19 21 21 20 19 19 23 24 20 20 23 24 24 25
70 69 71 69 67 69 77 84 82 81 79 77 73 67 65 66 64 60 57 57 56 53 52 49 48 49 50 49 47 47 48 47 47 48 49 48 46 43 42 42 41 41 38 33 28 26 24 23 24 26 28 29 29 29 29 29 31 33 35 36 37 36 33 30 27 27 27 25 23 22 21 19 20 21 21 20 21 24 25 22 22 24 24 25 27
71 71 73 71 68 70 78 84 84 83 82 79 75 71 69 70 68 63 59 57 55 53 51 48 47 49 49 49 49 49 50 50 48 47 47 47 46 43 39 37 39 39 37 33 29 27 24 23 22 23 25 28 30 31 30 30 32 34 35 36 37 36 34 30 27 27 27 26 24 23 22 19 19 20 21 21 22 24 25 24 23 23 24 28 32
75 73 75 74 71 72 78 84 85 85 84 81 78 74 71 70 69 66 62 58 55 53 53 51 50 51 51 50 52 52 52 52 51 50 49 49 48 46 40 34 34 36 35 33 31 29 27 24 23 24 26 28 31 33 32 31 32 34 36 36 38 37 34 30 28 28 27 27 25 24 22 19 19 20 21 22 23 24 25 25 23 23 25 30 34
79 75 75 76 74 73 76 81 83 84 83 81 80 77 72 71 71 67 63 61 58 54 54 54 53 53 53 53 54 54 54 56 55 53 53 52 49 47 42 35 34 36 36 35 34 32 30 29 28 28 28 29 32 35 35 33 32 33 36 37 38 38 36 31 28 28 27 26 25 24 23 20 18 20 22 22 23 23 23 24 24 25 28 30 33
81 78 77 78 76 75 76 78 80 81 81 80 81 80 75 72 72 70 66 64 62 57 54 56 55 53 53 55 55 55 56 58 58 57 56 54 50 46 43 37 35 37 39 38 38 35 33 33 34 32 31 31 32 36 37 35 32 34 37 38 39 39 37 32 29 29 27 26 25 24 22 21 18 20 22 22 23 23 22 23 26 28 29 30 33
82 80 80 79 80 79 78 79 79 78 78 79 80 80 78 74 72 71 70 68 65 60 57 58 59 56 54 55 56 57 58 59 59 59 57 53 49 45 42 39 36 38 41 41 39 37 36 37 38 36 34 33 33 35 37 36 33 35 39 40 40 41 36 32 30 28 26 25 24 22 21 21 19 19 21 23 24 25 24 25 27 28 29 31 34
82 81 81 81 83 82 78 78 81 80 79 79 80 79 77 76 72 69 70 70 69 67 64 62 61 58 57 58 59 59 59 60 60 59 57 53 49 46 43 40 38 39 41 41 39 38 39 42 41 38 35 33 34 35 37 37 35 35 40 42 42 41 36 32 31 28 26 24 21 19 19 20 20 20 21 22 24 25 26 27 28 28 28 31 34
83 82 82 82 83 82 78 78 80 82 83 82 82 80 78 77 74 69 65 64 66 70 70 67 63 59 59 63 65 63 62 60 60 59 58 56 53 49 48 45 41 41 43 42 40 41 43 45 42 39 36 35 35 36 37 38 35 35 40 44 44 42 36 32 31 28 25 21 17 17 18 19 20 22 22 23 24 25 27 28 29 29 29 31 33
84 84 83 83 83 81 78 78 79 82 85 85 86 85 80 76 75 73 66 59 60 66 70 70 68 63 62 65 67 66 64 62 61 61 60 59 57 54 53 50 46 45 45 44 43 43 44 45 43 41 39 37 37 37 38 38 37 36 40 45 46 43 37 33 31 28 24 19 16 16 17 18 20 23 24 25 25 26 27 29 30 31 30 31 33
85 85 84 83 82 81 79 81 81 81 82 84 88 89 84 79 76 75 73 67 61 63 67 69 71 69 67 68 68 67 65 62 61 62 62 61 58 56 55 51 48 48 48 46 46 46 46 47 46 44 42 39 38 39 39 40 38 37 41 46 47 43 38 34 31 28 24 18 16 16 17 18 21 23 25 27 27 27 28 29 31 31 31 32 34
86 86 85 84 82 81 81 82 83 83 81 82 87 90 88 86 81 75 77 77 70 65 64 66 69 70 71 72 72 69 67 64 61 61 63 62 59 56 54 50 48 49 49 48 49 50 51 50 49 47 45 41 40 40 41 41 40 40 44 47 47 43 39 35 31 28 25 20 18 18 19 20 22 23 25 27 28 29 29 29 30 31 31 33 34
85 86 85 84 83 82 82 82 83 84 84 82 84 88 90 91 88 79 77 79 79 75 70 66 67 68 70 73 74 72 69 68 66 62 61 61 59 57 54 52 51 52 52 52 53 53 53 51 49 48 46 43 41 42 43 43 42 43 45 47 46 43 39 36 32 29 27 24 21 21 21 22 24 25 25 27 28 29 29 29 29 30 32 33 35
83 85 86 85 84 83 82 82 83 84 85 84 84 86 90 94 94 87 81 79 81 83 80 75 73 72 72 71 73 74 72 71 71 68 64 62 59 58 57 56 56 56 56 55 54 54 54 52 51 50 48 45 44 44 44 44 44 43 44 45 46 43 40 37 33 30 29 28 24 22 23 24 26 26 27 28 28 29 29 29 30 31 32 34 35
80 83 85 85 84 84 82 82 83 83 84 84 85 85 88 94 98 94 88 82 81 85 88 87 83 80 78 76 73 74 74 73 73 72 69 67 64 62 61 60 60 59 59 57 55 55 56 55 54 53 50 48 46 46 45 45 44 44 44 45 45 43 40 38 34 32 31 29 25 23 25 26 27 28 29 29 30 29 29 29 30 31 33 34 36
77 81 84 85 84 84 82 81 82 83 84 85 86 86 85 92 99 97 90 84 81 84 88 92 93 88 84 82 80 77 75 76 76 75 72 70 70 68 67 66 64 63 61 60 58 58 57 57 55 53 51 49 48 47 46 46 46 45 44 43 43 42 41 38 35 34 33 29 25 24 26 28 29 29 30 30 31 31 30 29 30 32 33 35 36
76 78 82 85 85 84 83 82 82 83 85 86 87 89 87 90 97 98 91 84 80 80 81 86 92 94 91 88 86 83 79 77 78 79 78 75 73 72 71 69 67 65 63 61 60 60 59 58 56 54 52 51 49 48 47 45 45 45 44 43 42 42 41 38 37 36 34 29 26 25 27 28 29 29 30 31 32 32 31 31 31 32 34 36 36
76 77 80 84 86 86 85 85 83 82 84 87 88 90 91 91 95 97 95 89 83 81 80 79 82 89 95 95 91 87 83 81 79 78 79 79 76 73 71 69 67 66 63 60 60 61 60 58 56 54 52 51 50 50 48 46 44 44 45 44 42 41 40 39 38 38 34 29 27 27 27 29 29 29 30 31 32 33 33 33 33 33 34 36 37
77 77 79 83 86 88 88 87 86 84 84 86 89 91 93 94 96 97 98 96 92 88 86 83 80 83 90 96 95 91 86 84 82 78 78 80 77 74 72 70 69 68 65 61 60 61 62 59 56 54 52 52 53 53 51 48 46 46 46 44 42 42 42 41 41 39 34 30 29 28 28 29 30 29 30 30 31 33 35 36 36 35 35 35 36
77 77 79 81 84 87 89 89 88 87 86 86 88 91 94 96 97 98 99 100 99 96 93 90 88 87 89 93 96 95 90 87 84 81 81 82 81 79 77 75 74 72 68 63 59 58 61 60 57 55 52 50 50 51 49 48 48 47 46 44 42 43 43 42 42 38 33 31 30 28 28 30 30 29 29 30 31 33 35 37 38 37 35 35 36
75 77 78 79 82 85 88 90 91 90 88 87 88 90 93 96 98 99 101 101 102 101 98 94 92 92 92 93 94 95 94 90 86 84 84 85 85 84 81 79 77 74 69 63 57 54 56 59 59 57 55 52 49 47 45 45 47 48 47 44 43 43 43 43 41 37 33 32 31 29 29 29 30 29 29 30 31 33 35 37 39 39 36 35 36
72 73 74 76 79 82 85 89 91 91 91 90 89 89 91 94 97 99 101 102 102 102 100 98 95 95 96 96 96 96 96 93 90 87 87 87 87 85 82 79 76 73 68 64 60 56 56 58 59 58 57 56 55 52 49 47 48 50 49 46 44 43 42 42 40 37 34 33 32 31 30 30 30 29 29 30 31 32 34 37 40 41 38 37 38
71 71 72 73 75 78 81 84 87 90 91 91 91 91 91 92 94 97 99 101 102 101 101 99 98 97 97 97 97 96 95 93 88 84 83 83 83 81 78 74 71 69 67 64 62 60 59 59 59 59 59 58 56 56 55 53 52 52 50 47 45 44 43 42 41 38 36 35 34 32 31 31 30 30 30 31 32 34 36 37 40 43 42 42 41
70 71 71 72 73 75 77 79 82 85 88 91 91 91 91 91 92 94 97 99 101 101 100 99 98 97 95 95 95 94 93 90 85 80 79 79 79 76 72 69 67 66 65 64 63 63 63 62 61 60 60 60 58 57 57 56 54 52 50 48 48 47 46 45 44 41 39 37 36 35 34 33 32 31 31 32 34 36 38 39 41 44 44 42 39
66 68 70 70 71 73 75 76 79 81 84 87 89 91 91 91 91 92 94 96 98 99 100 99 98 97 95 94 93 93 92 89 85 81 79 79 78 75 71 68 67 66 66 66 65 65 65 65 64 63 60 60 59 59 59 57 54 52 50 50 49 48 48 48 48 46 43 41 40 39 38 36 34 34 34 35 37 39 40 40 41 43 43 41 39
57 63 67 69 70 71 72 74 76 79 81 83 86 88 90 91 91 92 93 93 95 96 97 98 98 98 96 95 94 93 91 89 86 82 80 79 77 73 70 69 69 69 69 68 67 67 67 67 68 67 65 63 62 62 63 60 56 53 51 51 51 50 50 51 52 51 49 48 47 45 42 40 38 38 38 39 41 42 42 42 41 42 43 43 44
43 49 55 61 66 69 72 74 75 77 80 82 84 86 88 90 92 93 94 94 93 92 93 95 97 97 97 96 96 95 93 91 88 85 82 80 77 73 69 68 68 69 70 70 68 68 69 68 68 69 69 69 69 68 67 65 61 57 54 53 53 53 52 53 54 54 54 54 53 51 48 45 43 42 42 43 44 45 45 43 41 42 43 45 47
29 35 40 47 53 59 65 70 74 76 79 81 83 85 87 90 93 95 96 96 94 93 92 92 93 95 96 95 95 95 94 92 90 87 85 83 80 75 71 68 68 69 71 71 70 70 70 70 70 69 69 70 71 71 69 67 64 61 59 57 55 55 54 55 56 56 56 57 57 56 54 51 48 46 46 47 47 47 46 45 43 42 44 46 49
23 27 32 37 42 48 54 61 67 72 77 80 82 84 87 90 93 95 97 98 97 97 95 93 92 92 93 93 93 93 93 92 91 90 87 85 83 79 76 73 70 68 70 73 73 72 71 71 71 71 71 71 72 71 69 66 65 64 62 61 59 57 56 56 57 58 58 60 61 59 58 55 53 51 50 50 50 49 47 47 46 45 46 47 50
23 26 29 33 36 41 45 51 57 63 70 76 81 84 87 89 91 93 95 97 98 99 98 97 95 93 92 92 91 91 91 91 91 91 89 87 85 82 80 78 74 70 71 74 75 74 73 73 73 73 73 73 73 73 71 68 67 66 64 62 61 60 58 58 59 59 59 60 62 61 60 59 57 55 54 53 53 52 49 49 50 50 50 49 50
24 26 28 31 35 39 43 47 52 57 63 69 76 82 86 88 91 92 93 95 97 98 99 99 98 96 95 93 92 91 90 90 90 90 89 88 86 84 82 82 79 74 72 72 74 75 75 75 75 75 74 74 73 73 72 70 68 67 65 63 62 61 61 62 62 61 60 60 60 60 61 61 60 58 57 56 55 54 52 53 55 55 53 51 51
23 24 27 31 35 39 44 48 53 57 63 67 72 78 83 87 90 92 93 94 95 96 97 98 98 98 97 96 94 93 92 90 90 89 88 87 86 85 85 84 82 79 76 73 73 75 76 76 76 75 74 73 72 71 71 70 69 68 66 65 64 63 63 65 65 64 62 61 60 60 60 61 61 60 58 58 57 55 55 56 57 56 55 53 51
23 25 29 34 38 41 45 50 55 60 66 72 75 79 82 84 87 90 92 93 93 93 94 95 96 97 98 98 97 95 94 92 91 89 87 86 86 86 87 86 84 82 80 77 75 75 76 76 75 74 73 72 70 69 69 70 69 68 66 65 65 64 65 66 67 66 65 63 61 61 61 62 61 59 59 59 58 57 58 59 58 57 56 53 51
28 30 35 39 43 48 52 56 58 59 62 65 70 74 78 80 82 85 87 88 89 90 92 94 95 96 97 98 98 97 95 93 92 91 89 88 87 86 87 88 86 84 83 80 78 77 77 76 75 73 71 70 69 68 68 69 68 66 65 64 65 65 66 67 67 66 65 63 62 61 62 62 60 59 59 59 58 58 58 59 57 56 54 51 49
29 32 38 44 49 54 56 57 58 59 59 57 57 60 66 72 77 79 79 80 84 88 91 92 93 94 95 96 97 96 95 94 94 93 92 90 89 87 87 88 88 86 85 83 80 78 78 77 74 72 70 69 68 67 68 69 68 65 64 64 64 65 67 67 66 64 63 62 61 61 62 61 59 58 58 57 56 57 57 55 54 52 50 49 49
30 34 40 47 53 55 55 55 56 59 60 56 52 48 51 60 68 71 72 75 80 84 87 89 90 91 92 93 94 94 94 94 94 94 94 92 91 89 88 88 88 87 87 85 82 79 78 77 75 72 69 68 67 66 66 67 66 65 64 65 65 65 67 66 64 62 62 62 61 61 62 61 59 57 55 54 54 54 52 50 49 49 49 49 50
33 36 42 49 53 52 50 48 49 51 52 50 48 45 44 49 57 62 67 72 76 78 81 84 86 88 89 89 90 92 93 94 94 94 93 93 92 91 89 88 87 87 87 87 84 80 77 76 74 71 69 67 66 65 65 66 65 63 64 64 63 63 63 62 61 61 62 64 63 62 63 63 61 56 53 51 50 50 49 48 49 50 50 50 50
35 38 42 49 51 47 45 42 39 39 41 42 42 42 42 43 49 57 65 68 70 72 75 78 81 84 85 86 87 89 92 93 94 94 93 92 92 92 91 89 87 86 85 87 87 83 78 74 73 72 70 67 66 66 65 66 65 63 62 61 59 57 57 56 57 58 59 60 60 59 61 62 61 57 54 50 48 47 48 49 50 51 50 50 50
35 38 42 48 47 43 40 37 33 32 34 36 36 37 38 41 47 55 62 64 64 67 70 73 77 79 80 82 84 87 90 93 94 94 93 92 92 92 91 90 88 85 84 85 86 85 81 76 74 75 73 70 69 69 68 68 66 64 61 59 56 53 53 54 54 54 54 54 55 55 56 57 56 55 53 49 47 48 50 50 51 51 51 51 51
35 37 42 47 45 40 37 33 29 29 30 31 31 33 34 39 46 53 59 60 60 62 65 69 73 75 75 77 82 85 89 93 94 94 94 93 92 92 90 89 87 86 85 85 83 82 81 79 78 78 77 74 72 72 72 70 68 65 62 58 56 54 53 53 53 53 53 54 53 51 50 50 51 51 50 49 49 50 51 51 53 54 54 53 53
34 36 40 44 42 37 34 31 27 26 26 27 28 30 32 37 43 49 53 55 55 58 60 63 66 69 71 73 78 84 90 93 93 93 94 94 93 91 88 87 86 86 85 83 78 75 75 78 79 80 80 78 76 76 75 73 70 68 64 61 58 56 54 53 53 53 55 54 51 47 46 47 48 49 49 48 49 50 50 52 54 54 53 52 51
33 35 38 42 41 36 31 29 26 23 22 23 24 26 29 33 37 41 45 48 50 52 53 55 60 64 66 69 74 81 88 91 91 92 93 93 92 89 86 85 85 84 82 79 76 75 75 77 80 82 81 80 80 79 77 75 74 71 67 63 60 57 54 53 53 54 54 52 47 43 43 45 46 47 47 47 47 49 51 52 53 52 51 50 48
33 33 36 40 40 36 30 26 23 21 19 18 19 20 24 28 31 36 41 44 46 48 49 52 55 58 61 66 72 79 83 86 88 91 92 92 91 89 88 87 84 82 80 78 77 77 75 75 80 84 83 82 82 82 80 79 78 74 68 64 62 58 54 53 52 52 50 47 43 41 41 42 43 44 45 46 47 49 51 51 50 49 47 45 43
32 33 33 36 38 36 31 26 21 18 15 14 14 15 19 24 27 31 36 40 44 46 48 49 52 55 60 66 71 74 78 81 85 89 90 91 90 89 88 86 83 81 80 78 77 77 77 78 84 87 85 83 84 84 84 83 79 74 69 66 63 59 55 52 51 49 46 42 39 38 39 40 42 43 44 46 49 50 49 48 47 45 43 42 42
32 33 32 33 35 36 33 27 21 16 13 11 11 11 15 21 26 30 34 38 43 47 49 50 53 57 61 64 67 70 73 76 81 85 86 87 89 90 88 85 83 82 81 79 78 80 83 87 90 90 87 87 86 85 86 84 79 73 70 68 66 60 55 51 50 48 44 40 36 37 39 40 40 42 44 46 49 48 46 45 45 44 44 45 46
Wind_Direction
209 208 206 204 202 197 193 193 190 188 191 191 193 198 198 197 200 202 203 209 211 212 212 213 216 218 218 221 225 228 231 235 238 239 241 239 237 236 236 236 236 239 246 251 259 270 274 269 264 262 259 258 256 251 254 260 265 271 277 281 286 293 299 309 321 328 330 336 345 347 345 344 343 344 348 353 356 357 1 3 2 0 357 356 354
207 207 206 203 202 198 195 194 190 189 191 191 193 198 199 196 198 202 203 208 213 215 218 220 221 220 219 222 226 229 231 232 232 231 230 229 226 227 228 231 234 241 249 257 264 269 268 263 261 259 257 256 253 250 253 260 266 270 274 279 284 291 298 306 316 326 329 332 341 346 345 342 341 344 349 354 359 0 359 358 357 357 354 351 350
207 206 205 203 201 198 196 195 191 191 192 192 193 198 199 197 197 202 206 210 213 216 219 221 223 224 224 227 230 233 234 235 235 232 228 225 224 226 229 233 238 244 251 259 265 266 262 260 259 256 254 252 251 249 251 258 265 269 274 277 283 289 296 304 312 323 328 328 334 341 343 341 339 343 349 355 1 1 357 355 353 357 356 351 347
208 208 205 202 201 198 197 196 194 193 193 193 194 197 199 199 198 202 207 211 214 216 219 221 223 225 228 231 234 236 237 237 236 235 234 233 232 232 235 239 243 248 253 259 264 262 258 258 257 254 251 248 249 250 252 258 264 269 274 277 282 287 294 303 310 321 327 326 328 334 339 340 339 340 346 354 357 355 352 350 349 355 357 350 344
207 209 206 201 200 198 197 196 195 195 193 194 195 196 199 201 201 203 206 211 215 217 220 224 225 228 231 233 235 238 240 240 238 237 238 239 240 240 243 246 248 252 255 259 263 260 256 256 256 254 251 246 245 248 252 258 263 268 273 276 280 286 293 302 309 318 326 327 325 330 335 338 339 339 342 348 347 344 346 346 346 351 353 349 342
206 207 206 202 199 198 197 196 197 196 194 195 195 196 199 202 204 206 207 212 217 219 221 226 228 230 232 234 235 238 240 241 240 240 241 242 244 246 248 250 251 252 253 257 260 258 254 254 254 255 253 248 243 244 250 257 263 268 272 275 279 284 292 300 307 315 323 326 324 327 332 336 338 337 339 342 340 338 342 347 347 346 345 343 340
207 206 205 202 199 199 198 198 198 196 196 196 195 196 199 201 203 207 210 214 219 220 221 225 228 230 233 234 234 236 238 239 240 242 242 244 245 246 246 246 247 248 249 253 256 254 252 252 253 255 256 253 246 244 249 256 262 266 270 273 277 284 291 297 304 311 318 323 323 325 331 335 336 336 337 338 337 337 341 345 345 341 338 337 334
208 207 206 202 200 200 200 200 199 197 198 197 194 197 201 201 201 205 210 214 218 220 219 222 226 228 231 232 230 232 235 237 239 242 242 243 243 243 244 243 243 245 248 251 250 247 248 249 253 257 259 257 252 247 249 254 260 266 269 273 278 284 290 296 303 308 313 319 320 321 326 332 335 335 334 334 336 338 339 341 340 336 334 335 332
207 206 206 204 200 201 202 201 200 199 199 198 195 199 203 202 201 204 208 211 216 219 219 219 222 224 227 229 228 229 233 236 238 240 243 244 244 245 245 245 245 246 248 249 244 241 244 247 254 261 265 264 259 255 253 253 258 264 269 274 278 283 289 296 303 306 310 316 318 317 321 328 333 333 332 332 335 338 340 341 338 335 334 337 338
207 205 205 204 201 201 203 202 201 201 201 200 198 200 204 204 203 205 207 210 213 216 216 216 216 220 223 226 229 230 233 237 239 240 243 246 247 248 245 242 246 251 252 250 244 241 244 249 256 265 270 271 268 264 262 257 258 263 268 273 278 282 288 295 302 305 308 314 317 315 317 323 330 332 331 332 334 338 341 340 337 334 334 337 342
207 204 204 205 202 202 202 203 204 204 204 202 200 201 204 205 205 207 208 209 210 212 212 212 213 219 223 226 230 233 235 237 239 240 242 245 248 248 244 239 242 249 252 252 249 246 248 254 262 270 274 276 274 271 268 264 262 265 269 273 276 280 285 293 300 303 307 313 316 314 314 318 326 330 331 331 333 335 337 336 333 332 332 336 341
207 205 204 204 203 203 202 202 204 207 207 206 204 204 205 206 206 208 209 210 211 212 212 213 214 219 224 228 231 233 234 235 236 237 240 244 245 246 245 240 240 241 242 247 252 253 254 260 268 275 277 280 278 272 270 267 263 265 269 271 273 276 282 290 297 301 306 312 315 313 311 314 321 328 329 329 330 331 331 329 330 332 334 336 339
207 207 205 204 204 204 202 202 202 204 208 210 208 207 207 207 208 210 211 211 213 216 216 216 216 219 224 227 230 231 230 232 235 235 238 242 242 242 243 240 238 236 235 240 249 255 259 265 272 277 279 280 278 271 268 267 262 261 266 269 271 275 280 289 294 298 305 311 312 310 308 312 318 324 326 326 326 327 327 326 328 331 335 336 338
208 208 207 206 206 205 202 201 201 200 204 209 209 209 210 209 209 213 214 214 216 220 221 219 218 221 224 223 225 227 226 229 232 233 236 239 238 240 242 239 237 234 233 236 243 250 259 268 274 277 277 277 275 270 266 265 261 259 264 268 270 274 280 287 292 296 304 309 307 305 307 312 317 321 323 323 324 324 325 325 327 329 333 336 337
208 209 209 208 208 207 202 201 203 200 201 205 206 208 211 211 210 214 216 216 218 221 223 221 219 221 223 222 222 222 223 226 230 232 236 238 238 240 241 240 238 234 232 236 244 252 260 267 272 274 274 275 275 270 265 263 260 257 263 267 269 274 280 285 289 294 303 306 302 302 308 314 317 319 321 321 322 322 323 325 326 328 331 334 336
208 209 210 210 209 208 203 202 205 204 202 203 203 204 208 210 211 216 217 215 215 217 219 220 219 219 221 221 221 221 222 225 229 232 236 239 239 241 242 242 240 235 234 238 246 254 261 266 269 271 273 274 274 269 263 262 258 255 259 264 267 273 279 283 286 292 300 302 299 302 309 314 316 318 320 320 320 321 323 325 326 327 328 331 333
209 209 210 211 211 209 205 203 205 206 205 206 205 204 205 206 209 215 218 216 214 214 215 217 218 219 220 219 219 220 221 225 231 234 237 239 240 239 240 240 239 237 238 242 248 255 260 264 267 269 271 272 272 268 263 260 257 254 255 260 265 272 277 280 283 290 296 296 297 304 309 313 315 316 318 319 319 320 323 324 325 327 328 329 331
208 210 210 211 212 210 207 205 205 206 207 207 207 206 205 205 206 212 219 219 218 217 216 216 218 218 219 220 220 221 222 224 230 235 237 238 237 236 235 236 238 241 244 248 253 257 261 263 264 267 269 269 269 267 263 259 256 253 255 259 265 270 274 276 279 286 291 290 294 303 309 313 314 314 315 316 317 318 320 322 324 327 329 330 331
209 210 210 211 213 212 210 208 206 207 209 208 206 206 206 207 207 209 215 220 222 223 221 219 218 219 219 220 221 222 223 225 228 232 235 235 235 233 233 235 239 244 248 253 257 260 261 262 263 264 266 266 266 265 262 260 257 255 256 260 265 268 270 273 276 282 285 284 289 298 305 311 312 313 313 313 313 315 317 320 322 325 328 329 329
211 211 211 211 213 213 212 211 208 208 209 209 207 205 206 208 209 209 212 216 221 224 224 223 222 222 222 222 222 223 225 226 228 231 233 232 233 233 234 236 240 245 250 254 257 259 260 261 261 262 262 262 263 263 261 260 258 257 256 257 260 264 267 270 274 278 281 281 285 293 301 308 311 312 312 311 310 312 314 318 320 323 325 326 327
213 212 213 213 213 214 214 213 210 209 209 210 210 208 206 207 209 211 214 216 218 222 224 225 225 226 226 226 226 227 227 228 229 231 234 234 234 235 237 239 242 246 251 255 256 258 259 260 261 261 261 261 262 261 260 259 258 257 256 257 259 262 265 268 271 273 276 278 284 292 300 307 311 312 311 310 309 309 312 316 320 322 324 325 326
216 213 214 214 215 215 216 215 213 210 210 211 212 211 209 208 209 213 217 219 221 222 225 226 226 228 229 230 231 231 232 233 232 233 235 236 236 238 240 242 246 249 252 255 256 256 257 259 259 259 260 260 261 259 258 257 256 256 257 258 260 260 262 264 267 269 271 275 283 293 300 306 310 312 311 309 307 307 308 312 317 322 324 325 325
218 216 215 215 216 216 217 217 216 213 211 211 212 213 212 211 211 213 217 220 221 221 224 227 228 229 231 232 233 234 235 237 238 238 239 239 239 241 244 246 249 251 254 256 256 255 255 256 257 258 259 260 260 258 257 255 255 256 256 256 258 259 260 263 265 268 270 275 285 294 300 304 308 311 311 308 306 305 306 308 313 318 322 323 324
219 218 216 216 216 217 218 218 218 216 214 212 212 213 214 213 213 214 216 219 220 220 221 225 228 229 231 233 235 236 237 238 240 242 244 245 245 245 247 250 252 254 255 255 254 253 253 254 255 256 257 259 259 258 257 256 256 256 254 254 256 258 260 262 265 266 270 278 287 295 300 303 306 309 309 306 304 304 305 306 308 312 317 320 322
219 219 217 216 216 217 218 219 219 219 217 214 213 213 214 215 215 216 218 219 221 222 223 226 229 230 232 233 235 236 238 240 240 241 245 248 250 250 251 252 254 255 255 254 253 252 252 251 252 253 255 256 258 258 258 257 256 256 255 254 256 257 259 262 264 266 270 277 285 293 298 301 304 306 304 301 299 301 304 306 306 308 312 317 319
221 220 219 218 217 217 218 219 220 220 220 218 216 215 215 216 217 218 220 221 223 225 227 230 232 232 232 234 235 236 238 240 242 242 244 248 251 252 253 254 255 255 255 254 252 252 252 251 249 250 251 253 256 258 259 258 256 255 255 255 256 258 261 263 264 265 269 274 281 290 296 300 302 302 298 295 295 298 302 305 306 307 310 313 316
223 222 221 220 219 218 218 219 220 221 221 221 220 218 216 216 217 218 220 222 224 226 229 231 233 233 233 234 236 237 238 239 241 243 245 247 249 251 252 254 254 254 253 251 249 248 251 252 251 249 247 247 249 253 256 258 258 257 257 258 259 261 263 264 263 264 268 273 280 288 295 299 299 297 292 289 290 295 301 305 306 307 309 311 313
226 225 225 224 223 221 220 220 221 222 222 222 222 222 220 219 218 219 220 222 225 227 228 231 232 233 233 235 237 238 239 239 241 243 244 246 248 249 251 252 252 251 250 248 244 241 242 248 252 251 249 247 246 248 250 253 256 259 261 262 263 264 265 266 266 267 270 275 282 287 292 296 296 292 287 284 286 292 298 304 306 306 308 311 311
229 229 228 227 227 226 224 223 223 223 224 224 224 224 224 222 221 221 221 222 224 226 228 229 231 232 233 234 236 238 238 239 239 240 241 243 244 246 248 248 247 247 246 244 242 238 235 238 245 250 252 251 249 248 249 250 252 256 261 264 266 267 268 269 270 271 273 278 282 286 288 292 292 287 283 281 283 290 296 301 304 305 310 313 311
231 231 231 230 229 229 228 228 227 226 226 226 227 227 226 226 225 224 224 223 224 225 227 228 229 230 231 233 234 236 237 237 238 238 239 240 241 242 244 244 243 242 242 242 240 236 233 232 235 241 248 252 251 250 250 250 251 254 258 262 266 269 271 272 272 273 275 278 281 282 285 288 287 282 278 279 282 288 295 300 302 305 311 316 313
235 235 234 233 232 231 231 230 230 230 230 229 229 229 229 229 229 228 227 227 226 226 227 228 229 229 230 232 233 235 236 237 238 238 238 238 239 240 241 241 240 240 240 240 238 234 232 231 231 233 239 246 249 251 251 250 250 251 255 261 265 267 269 271 273 275 276 278 279 281 283 285 284 280 278 279 282 289 295 297 301 304 307 310 310
238 238 238 237 237 236 235 233 232 232 232 232 232 232 232 232 232 232 231 231 230 229 229 229 229 230 230 231 232 234 235 236 237 237 237 238 238 238 238 239 239 238 238 238 236 233 231 231 231 232 234 238 243 247 250 251 249 248 250 255 260 263 265 268 271 274 277 277 278 280 282 283 284 283 282 280 283 288 292 294 299 303 302 301 302
237 239 241 241 240 239 238 237 236 235 233 233 233 233 233 233 234 234 234 234 233 233 232 231 231 231 231 231 232 233 234 234 235 235 236 237 236 235 236 237 237 236 236 236 235 233 232 232 233 234 235 237 240 244 247 250 250 247 245 247 251 255 259 264 268 271 274 276 277 280 282 283 284 285 283 280 282 288 290 293 299 302 301 299 299
234 235 236 239 240 241 240 240 239 238 237 235 234 234 233 233 233 234 234 235 235 235 235 234 233 234 233 233 232 233 234 234 234 234 235 235 235 234 235 235 236 235 234 234 234 233 233 233 234 235 237 239 241 244 246 248 249 248 245 243 245 248 252 257 262 267 270 273 276 278 280 282 282 283 282 281 284 288 290 293 298 301 301 299 298
239 236 234 233 234 237 239 240 240 239 239 238 236 235 234 233 233 233 233 234 235 235 236 236 235 235 235 235 235 234 234 235 235 235 234 234 235 234 234 234 235 235 234 232 232 233 234 234 235 236 238 240 242 244 246 247 248 248 246 244 244 245 248 252 257 261 265 269 273 276 278 279 280 281 282 282 284 288 291 293 296 298 299 298 296
245 243 241 238 236 235 236 237 238 239 239 238 238 236 235 234 234 233 233 232 233 234 235 235 236 236 236 236 236 236 236 236 236 236 235 235 234 234 234 233 234 235 234 232 232 234 235 236 236 237 239 241 242 244 246 247 247 248 248 247 246 246 248 251 255 258 261 266 270 274 277 279 280 281 281 282 285 290 292 292 293 295 296 295 293
261 258 254 249 245 241 238 237 236 237 238 238 238 237 236 235 234 234 233 233 232 232 233 233 235 235 236 236 236 237 237 237 237 237 236 236 235 234 234 234 234 234 233 232 233 234 235 236 237 238 240 241 243 244 246 247 248 250 250 250 249 248 249 252 255 257 260 263 267 272 276 279 281 281 282 283 286 290 291 290 290 292 294 293 289
272 275 273 269 261 253 247 242 239 238 237 236 237 237 236 235 234 234 233 232 232 232 232 232 233 234 235 236 235 235 236 237 237 238 237 237 236 235 234 234 234 233 232 232 233 234 234 236 237 239 240 241 243 245 247 248 249 251 252 252 251 250 250 252 254 256 259 261 265 269 272 275 277 278 280 281 284 287 288 289 289 291 293 290 286
273 273 274 275 274 269 263 256 248 242 239 237 237 237 237 236 235 234 233 232 232 232 231 232 232 232 233 234 235 235 235 235 236 237 237 237 237 236 235 235 234 233 232 232 233 233 234 235 236 238 240 241 242 244 246 248 249 251 252 252 252 252 252 253 254 255 257 260 264 266 269 271 272 273 275 277 280 284 286 288 289 291 290 287 283
277 272 268 268 268 268 266 264 260 256 251 246 243 242 242 242 240 237 235 233 232 232 232 231 231 231 231 232 233 234 234 234 235 235 236 236 236 236 236 236 235 233 232 232 233 233 233 233 234 236 238 240 240 241 243 246 248 250 251 252 252 252 253 253 254 254 256 260 263 266 268 269 270 270 271 274 277 282 285 287 289 289 286 282 281
277 272 269 267 266 266 267 269 272 273 271 264 255 246 244 245 245 243 240 237 235 233 232 231 230 230 230 230 231 232 233 233 233 234 234 235 235 235 235 236 235 234 233 233 233 232 231 231 233 233 234 236 238 239 241 245 247 249 250 250 251 252 253 253 254 255 257 260 263 265 267 268 269 269 271 274 278 282 285 286 286 284 281 278 278
285 280 276 273 271 272 275 278 278 277 275 271 264 253 242 238 241 242 241 239 237 235 233 231 230 229 229 229 229 230 231 232 232 233 233 233 234 234 234 235 235 235 234 233 233 232 231 231 232 231 231 233 237 240 242 244 246 248 248 249 250 252 253 254 255 257 259 260 262 263 265 267 269 270 273 276 280 283 283 283 282 279 276 276 277
293 289 287 284 282 284 287 286 280 275 272 269 264 257 246 235 233 234 235 235 234 234 234 232 231 230 229 228 228 229 230 231 231 232 232 232 233 234 234 235 235 235 235 234 234 232 231 232 233 232 231 234 238 241 243 245 246 247 247 248 250 252 253 255 256 258 259 261 261 262 264 266 268 270 273 276 279 282 282 280 278 275 273 274 276
296 295 294 292 292 297 300 293 284 277 273 268 261 255 247 237 229 227 229 230 229 229 230 231 231 231 229 228 227 228 229 231 231 232 232 232 232 232 232 233 234 235 235 235 235 233 231 232 234 233 234 238 241 242 243 245 247 247 247 248 249 251 252 253 255 257 259 261 262 262 264 265 266 269 271 272 275 281 281 277 276 275 272 272 272
300 301 301 299 302 308 307 299 292 284 276 268 260 251 242 234 226 223 224 225 224 223 225 227 229 229 229 228 227 227 228 230 231 232 232 232 231 231 231 231 232 233 235 236 236 235 233 233 234 235 236 240 243 243 243 245 247 247 247 248 249 250 250 251 254 255 256 258 260 262 263 263 264 265 266 267 273 280 279 274 274 274 270 268 268
305 308 308 307 311 317 314 306 299 289 278 269 259 249 237 230 224 222 222 222 218 217 219 222 225 226 226 227 227 227 227 228 229 231 232 232 232 231 231 230 230 231 233 235 236 237 236 236 236 237 238 240 242 243 243 244 245 246 247 247 248 249 250 251 252 252 254 258 259 259 259 261 261 262 262 265 272 276 274 271 271 271 269 268 268
309 312 312 312 317 324 323 314 304 291 279 269 257 246 234 227 224 223 222 219 214 213 214 217 222 224 225 225 226 226 227 228 228 229 230 232 232 232 231 230 229 229 231 233 236 238 240 241 240 239 239 240 241 241 242 243 244 244 245 246 246 247 248 249 249 251 255 257 255 254 256 259 260 261 262 266 270 269 267 267 268 269 270 270 270
312 315 317 318 323 330 330 321 308 294 279 267 256 243 233 227 224 222 220 215 211 209 210 213 218 221 223 224 225 226 227 227 227 228 229 231 232 232 232 231 230 230 231 232 233 234 237 241 242 241 240 239 239 239 240 242 242 243 243 243 244 245 245 246 249 253 256 254 251 251 255 257 259 262 264 265 264 263 263 265 266 267 268 270 271
315 319 322 324 327 333 336 328 314 300 283 268 256 244 233 226 221 219 215 210 206 204 205 208 213 217 220 223 224 226 226 226 227 227 228 230 231 232 232 232 231 231 230 229 229 230 231 235 239 240 240 239 239 239 239 240 240 240 240 240 241 242 243 246 251 254 253 251 250 251 253 255 259 262 262 261 260 260 262 264 266 266 267 268 270
319 321 326 329 332 336 341 338 323 307 291 271 256 245 232 221 215 212 209 205 201 200 201 205 208 212 217 221 223 225 225 226 226 227 228 229 230 231 232 232 232 231 230 227 226 227 228 231 236 239 239 239 239 238 237 237 237 237 237 238 239 239 242 247 251 253 252 250 250 250 252 255 258 259 259 259 259 260 262 263 264 265 265 267 270
321 321 327 335 338 338 343 345 337 321 302 279 255 241 233 221 210 205 202 200 198 198 198 202 207 211 216 220 222 224 224 224 225 226 227 228 229 230 231 232 232 231 230 226 223 223 226 230 234 236 237 238 239 238 236 236 235 234 234 236 237 239 242 246 251 253 251 247 246 248 251 254 256 256 257 258 258 259 261 261 262 264 265 266 268